RH
14 14 36 52 60 55 56 40 17 17 17 16 19 26 46 47 50 67 75 72 65 66 74 94 89 78 87 78 59 23 10 7 5 5 5 5 6 6 6 7 8 9 13 19 10 8 7 6 5
14 30 41 42 50 58 45 17 17 16 14 15 23 36 40 54 57 76 71 73 70 60 63 85 93 96 86 89 43 24 9 6 5 5 5 6 6 7 7 8 8 8 9 8 8 8 7 6 6
11 39 42 40 48 49 40 17 14 13 12 13 23 31 39 56 61 67 64 74 71 68 76 98 99 98 94 74 55 31 7 6 5 6 6 7 7 8 8 8 8 7 8 8 8 8 8 7 7
20 37 34 38 41 30 24 16 9 14 13 14 23 40 42 44 55 63 74 74 75 82 99 99 96 96 94 84 64 14 7 6 6 7 8 9 9 10 9 8 9 9 9 8 9 8 6 6 7
30 31 37 37 32 22 12 8 7 8 12 18 25 41 48 50 54 67 78 78 86 98 98 97 96 92 91 91 49 10 8 7 8 10 10 10 10 9 9 9 10 9 9 9 9 8 7 6 6
35 24 36 34 24 15 10 8 7 9 13 15 38 42 54 57 60 74 76 80 92 97 97 97 94 90 93 82 16 9 8 10 12 11 10 10 10 9 9 10 10 9 9 9 9 8 7 6 6
31 31 31 26 18 12 10 7 8 12 13 16 31 45 58 62 69 73 81 84 92 91 97 97 93 90 94 39 13 10 11 12 12 11 10 12 14 22 17 17 14 12 10 10 10 9 9 8 6
21 25 26 20 16 13 8 7 7 8 24 18 29 48 56 62 68 74 81 86 93 90 88 97 89 93 100 51 19 14 12 11 11 15 22 30 28 29 30 26 27 24 15 12 11 12 10 9 14
13 23 26 19 15 10 8 9 7 22 30 30 27 38 47 61 65 70 81 90 91 87 85 82 79 77 66 50 20 14 12 13 18 27 36 35 34 31 31 32 36 33 31 26 24 23 19 23 29
13 20 19 14 11 10 8 14 14 21 23 43 49 50 55 60 65 71 82 85 83 76 84 85 84 84 71 41 23 16 16 21 34 48 50 50 45 42 44 44 41 41 38 34 32 27 33 35 33
10 15 12 11 9 8 10 19 18 20 26 25 49 54 57 60 64 71 81 80 74 70 76 82 80 86 76 59 33 33 42 56 51 44 58 63 59 52 54 53 52 49 48 46 42 41 46 43 44
12 9 8 7 8 9 12 18 20 19 23 25 32 48 54 59 62 66 74 74 71 77 84 79 79 81 73 74 66 67 70 70 71 73 68 53 60 65 66 61 56 51 49 51 52 49 53 56 52
10 9 7 7 9 10 10 18 21 19 22 24 28 44 51 55 57 60 61 66 72 79 78 72 70 67 74 71 71 74 71 72 71 74 72 69 61 66 67 66 66 63 59 56 53 53 56 59 60
9 9 8 7 8 10 12 19 16 18 20 24 34 41 46 48 50 51 59 68 65 76 72 70 65 54 70 74 70 69 71 69 69 72 71 68 66 63 60 61 64 66 68 65 63 59 56 58 59
10 12 10 8 8 13 13 24 23 16 18 25 27 31 40 41 43 46 56 64 71 65 68 63 61 57 61 69 73 66 66 65 65 64 64 65 66 68 70 71 67 62 61 64 65 63 63 61 55
14 13 15 12 12 12 15 33 26 22 22 23 29 30 36 41 47 52 60 62 56 55 59 59 61 62 65 70 77 74 62 65 65 63 64 67 68 68 68 70 68 65 64 66 71 66 66 67 65
19 21 16 15 12 11 17 35 29 26 27 27 31 34 38 52 52 50 49 49 44 48 55 59 62 66 70 73 73 75 62 64 69 68 66 66 72 68 64 63 66 70 69 66 64 66 68 69 69
24 22 19 15 14 15 32 38 34 31 30 44 49 54 63 59 65 55 56 46 52 54 58 59 61 62 67 64 65 65 66 67 70 71 74 74 67 68 68 69 71 71 72 71 61 63 72 70 70
19 21 20 16 14 21 36 39 39 36 38 49 55 62 72 70 72 60 65 59 61 62 64 65 66 66 70 68 66 73 71 76 80 86 82 74 74 79 81 88 82 80 74 72 64 60 68 72 71
20 18 26 21 15 36 46 59 55 41 42 46 53 59 61 64 67 74 72 74 66 64 68 70 69 66 62 67 74 82 83 85 83 79 75 73 72 70 70 78 77 73 67 62 56 60 66 68 75
20 24 26 26 22 36 58 81 77 63 41 42 48 54 60 64 68 69 66 59 58 59 60 67 67 72 75 76 74 76 75 76 68 64 64 64 66 58 53 53 52 59 62 63 64 61 65 71 67
23 25 26 26 31 28 29 99 90 77 49 45 46 50 51 59 62 57 59 62 58 57 58 58 64 63 62 59 54 57 63 64 59 60 60 57 56 56 54 53 54 54 60 65 67 67 63 61 74
25 22 28 30 37 33 61 84 100 80 62 52 48 49 50 52 53 53 51 53 54 53 56 56 51 54 53 49 46 44 43 43 43 44 45 46 49 52 51 51 55 55 60 61 61 63 63 62 66
28 35 37 42 41 80 85 76 99 61 46 49 47 48 49 49 46 45 48 47 47 47 47 47 48 48 48 48 46 45 44 44 43 43 43 44 46 49 54 53 54 53 60 70 71 62 64 62 64
37 52 85 81 91 99 99 83 82 51 37 39 44 43 38 39 40 40 41 42 45 45 45 44 42 39 40 41 42 40 38 38 39 40 44 51 52 50 48 48 49 47 48 52 68 85 77 70 62
42 55 85 85 94 99 59 98 98 65 34 34 36 37 38 39 39 39 40 42 42 41 38 34 33 34 32 34 34 35 38 40 44 45 53 57 61 66 68 68 72 80 78 66 63 73 92 83 69
47 68 53 69 76 89 95 98 68 62 37 39 40 39 40 40 40 40 40 38 35 31 30 31 31 32 32 34 39 41 45 51 54 62 69 71 78 91 92 89 90 90 93 93 96 83 86 100 92
56 54 82 89 92 99 89 96 99 79 52 47 43 38 39 38 39 38 34 30 28 29 30 29 30 32 35 36 42 50 54 70 84 90 90 92 91 97 98 90 84 82 83 84 91 98 89 93 99
76 86 86 84 95 94 94 98 79 66 51 49 38 36 35 36 33 29 26 25 27 27 28 30 33 36 40 51 48 57 70 95 98 98 99 99 98 96 89 89 89 88 91 92 93 83 96 98 98
66 72 97 94 89 99 92 88 54 53 36 34 35 33 35 29 26 23 24 26 27 28 31 34 37 43 50 46 61 68 94 98 99 98 97 93 91 96 99 99 96 96 94 92 92 94 100 98 99
Wind_Speed
8 4 2 2 3 1 5 7 2 7 5 10 11 14 14 13 3 5 16 22 17 15 26 21 19 18 18 17 14 11 10 11 11 11 10 9 8 8 7 7 6 5 6 6 7 7 7 7 7
10 4 6 4 2 3 5 1 7 7 8 15 22 21 14 6 13 24 23 19 16 16 23 20 19 19 18 17 14 12 11 11 11 10 10 9 8 8 7 7 6 6 6 7 7 6 6 7 7
6 4 3 3 4 7 5 3 5 11 10 10 9 17 8 11 23 21 19 22 18 19 21 22 21 20 16 16 14 13 12 11 11 10 10 9 8 8 8 7 6 6 6 6 7 7 7 7 7
2 3 7 1 11 17 12 8 9 9 10 7 26 9 12 8 19 22 25 19 17 23 25 23 20 17 17 16 14 12 12 11 10 9 9 9 8 8 8 7 7 7 6 6 6 7 7 7 7
2 5 2 4 11 14 10 4 14 6 8 13 11 6 11 16 17 24 23 19 23 22 21 22 19 15 15 15 14 12 11 10 10 9 9 9 8 8 8 8 8 7 7 6 6 6 5 6 6
3 4 4 6 10 14 4 12 11 11 20 13 17 15 10 20 23 25 19 20 19 23 22 20 16 14 16 15 12 11 10 10 10 10 9 9 8 8 9 9 9 9 9 8 8 7 7 6 5
8 1 6 8 15 8 7 17 12 13 15 15 23 6 19 27 23 19 22 17 20 16 20 18 15 13 12 12 10 10 10 11 11 11 11 11 11 11 12 11 11 11 10 10 9 7 7 6 5
19 4 8 10 8 8 12 19 22 11 16 16 10 8 13 32 28 27 24 21 17 12 10 16 14 15 15 10 10 10 11 11 11 11 11 11 11 10 10 11 12 11 11 10 9 8 7 5 5
17 1 6 11 8 6 17 10 21 27 30 30 10 11 29 36 29 25 25 21 15 9 8 12 11 12 10 9 9 11 11 12 13 11 10 9 8 8 9 10 11 11 12 11 8 8 7 4 4
6 2 8 12 6 4 14 19 19 14 20 24 29 32 36 35 28 26 26 23 17 11 10 10 6 8 6 8 8 9 11 11 10 10 8 7 8 7 7 6 8 10 13 10 9 10 6 4 4
12 9 13 20 6 16 10 22 21 13 9 13 25 32 32 32 28 22 21 19 14 11 11 11 7 6 5 4 1 7 7 6 5 6 6 3 3 2 4 6 7 9 11 13 13 13 8 10 9
5 23 23 10 6 11 7 21 18 20 11 11 7 24 30 29 27 24 22 18 16 16 16 10 10 9 9 6 1 5 4 3 4 6 3 4 2 1 5 7 7 9 9 11 14 15 9 10 16
4 6 11 6 14 13 8 14 12 12 13 13 9 22 22 23 22 23 22 19 19 21 20 12 9 13 10 6 3 2 2 2 3 7 9 9 7 4 7 9 8 10 10 11 14 14 9 11 14
14 11 11 13 5 13 8 9 16 8 11 15 18 16 17 18 18 19 23 22 22 24 20 15 9 19 11 13 9 10 10 9 10 8 11 14 13 11 13 12 12 11 10 13 14 15 16 16 15
15 7 9 12 5 8 14 9 7 14 17 16 17 15 13 12 15 17 21 20 27 24 15 14 11 7 16 15 7 14 16 11 11 11 11 16 19 19 18 16 14 13 13 14 17 19 20 20 18
8 4 5 6 11 7 8 4 8 22 20 20 16 15 13 12 10 7 19 24 23 15 16 12 6 3 9 12 7 8 11 10 15 14 13 16 21 22 21 21 23 20 18 16 19 21 21 19 17
5 3 5 1 7 3 6 7 13 25 25 22 13 16 16 25 27 21 17 13 19 18 17 11 5 2 2 7 10 13 13 15 17 20 19 20 19 20 25 29 27 23 21 21 22 21 22 22 21
8 8 9 1 2 10 20 12 13 28 25 25 37 36 37 33 27 24 24 26 23 19 14 12 6 4 6 12 17 20 22 22 22 24 22 21 19 24 25 22 22 24 27 27 23 24 20 23 22
4 7 8 6 6 11 18 15 12 24 30 23 28 32 33 29 22 23 17 21 19 18 14 9 4 6 11 18 22 23 20 21 24 20 19 20 19 16 21 26 33 32 30 29 26 23 23 22 23
9 8 6 1 11 19 19 18 16 19 20 25 19 22 19 16 12 11 8 13 8 4 4 5 13 18 20 19 23 20 23 21 24 25 27 29 29 27 29 29 30 31 31 30 25 23 23 26 21
8 6 7 8 9 16 15 13 13 11 14 20 20 18 14 13 11 6 2 5 6 10 17 14 12 13 14 16 18 22 26 29 32 32 35 30 28 28 25 25 26 28 29 28 26 26 27 23 26
4 6 7 9 7 3 3 4 9 8 6 9 14 15 10 10 7 3 5 7 11 11 11 12 11 15 17 19 19 18 21 24 25 24 25 29 30 31 31 30 26 26 25 26 27 27 26 29 24
5 3 9 11 7 3 8 7 4 3 4 6 13 15 12 8 6 6 7 8 6 7 5 9 20 21 20 22 23 26 27 28 29 30 32 34 32 32 34 33 30 28 28 30 32 33 32 29 32
7 7 7 5 1 4 12 5 4 2 6 10 12 11 6 6 5 5 3 6 8 13 18 22 23 24 25 25 25 26 27 28 29 31 32 32 31 28 23 24 24 24 22 25 32 35 35 31 31
7 6 4 6 5 4 2 9 3 6 7 9 8 8 5 7 8 9 11 12 12 17 20 20 23 26 24 26 26 27 29 32 32 31 29 25 25 28 33 34 34 34 32 28 22 28 35 35 30
5 6 4 3 2 1 8 3 4 12 8 4 7 16 19 17 15 14 16 14 17 17 18 22 24 24 25 24 25 25 24 26 26 32 34 34 33 33 32 34 36 37 39 40 30 23 30 35 36
5 4 4 5 4 5 2 2 2 10 3 11 18 19 16 17 15 15 14 15 18 20 22 22 22 22 21 22 23 26 26 25 32 30 31 34 37 41 43 44 46 46 45 46 48 44 30 30 36
6 3 5 4 3 3 5 4 1 7 6 7 9 8 7 11 10 12 15 19 19 21 21 23 25 27 26 30 30 27 36 37 27 26 26 26 26 25 22 18 18 19 20 20 22 44 45 35 29
5 4 5 5 3 4 3 1 5 4 6 6 11 13 9 9 10 14 18 20 21 24 27 27 27 26 29 23 32 37 35 26 28 21 18 16 16 16 16 16 16 16 16 15 15 22 43 45 33
11 7 3 3 2 3 4 3 4 4 9 9 6 10 10 11 14 17 21 22 24 25 25 26 26 27 23 33 29 31 29 25 19 18 16 17 17 17 17 17 18 17 16 16 16 14 21 33 30
Wind_Direction
307 321 312 287 24 181 273 263 175 80 37 61 48 83 94 56 47 147 154 186 187 165 158 158 150 143 135 131 126 125 122 115 110 105 102 99 93 86 82 79 70 55 47 36 30 30 38 44 51
301 194 316 284 179 282 288 174 91 86 137 108 84 113 46 82 94 131 146 176 179 174 161 157 153 146 144 134 131 130 121 115 111 108 104 100 95 90 83 74 63 48 34 25 24 20 30 45 59
291 235 253 184 227 232 241 291 125 136 130 120 107 75 75 115 131 146 186 174 180 172 158 152 149 149 144 137 131 129 123 121 115 108 104 100 95 92 87 80 73 58 42 30 21 13 25 39 58
206 244 257 255 260 272 257 247 92 147 127 97 114 88 94 141 152 170 169 173 176 160 153 154 156 155 143 139 137 133 126 121 116 114 109 102 93 87 76 71 65 59 48 44 37 35 24 36 53
230 263 252 280 282 279 305 75 68 55 118 131 109 78 90 128 164 162 162 175 165 155 154 157 160 164 151 146 143 136 129 127 123 116 108 100 89 81 73 67 64 55 46 37 33 29 26 31 51
253 285 324 284 286 294 313 36 46 59 78 73 82 96 81 139 157 158 170 171 171 156 155 157 166 165 149 152 144 138 134 132 128 122 114 104 93 80 69 64 52 39 34 28 23 19 13 24 37
236 13 256 279 294 0 360 35 22 58 49 46 133 89 133 141 150 154 168 175 170 159 154 156 165 162 164 160 147 143 141 140 136 126 117 104 97 76 75 62 43 31 23 20 18 18 15 19 29
244 125 289 279 307 304 14 23 27 35 30 85 106 138 159 149 156 162 169 168 162 157 158 164 168 164 164 175 162 152 149 144 131 117 114 106 86 81 75 43 33 26 21 12 9 3 10 25 46
271 260 262 278 289 273 30 25 1 72 66 56 60 144 155 148 166 166 162 153 152 151 161 171 173 184 189 190 171 159 152 139 126 113 102 100 78 57 43 26 19 23 16 8 23 23 25 46 75
199 214 250 259 280 32 26 47 61 74 58 73 84 119 142 152 167 167 162 155 154 155 165 169 188 177 187 193 177 159 147 139 135 107 98 85 49 23 8 19 5 5 4 7 7 11 11 341 347
248 230 246 264 64 53 41 67 60 66 52 58 125 139 152 159 165 171 169 171 165 183 183 183 180 185 207 143 143 137 137 122 129 101 98 88 60 233 332 352 346 341 355 347 346 347 346 323 332
255 266 250 258 78 67 61 88 74 67 93 59 129 162 161 166 172 180 184 185 184 176 167 164 170 186 203 223 293 79 53 38 16 348 319 292 218 325 334 326 319 318 331 325 325 328 314 313 297
253 288 353 306 96 101 82 106 111 83 93 66 45 161 163 173 181 193 209 196 182 168 171 174 197 184 197 203 254 293 277 265 331 270 275 285 274 239 251 275 281 295 290 286 292 297 296 280 294
300 317 334 316 141 132 112 121 91 114 117 104 110 153 164 181 194 203 197 173 167 174 176 178 188 172 180 189 208 196 170 200 229 246 274 280 279 279 280 271 270 277 287 296 292 282 278 274 275
309 323 311 280 238 133 106 39 65 58 61 115 123 114 169 181 201 199 177 165 163 163 175 176 186 194 196 194 217 224 222 228 246 247 270 280 285 290 293 290 287 279 273 274 271 274 276 278 276
295 303 283 304 130 162 121 111 47 59 61 39 127 131 108 81 107 138 159 152 158 149 183 166 190 246 209 216 238 260 223 237 261 254 250 274 283 285 290 293 295 292 291 280 269 269 275 277 282
28 266 4 71 75 122 82 100 48 57 48 32 82 111 101 95 107 109 125 139 164 158 160 156 162 149 277 244 240 258 260 252 257 267 272 266 269 279 286 283 285 280 278 288 268 265 265 264 267
341 345 339 28 347 62 89 81 58 57 49 55 69 75 80 83 77 95 108 130 132 131 136 157 174 232 270 295 292 291 285 284 274 275 277 275 274 270 273 272 274 278 275 283 283 260 258 262 261
327 356 330 354 32 86 88 77 69 57 47 60 71 79 80 85 73 84 81 109 114 115 121 126 165 259 290 302 289 284 282 290 278 272 268 259 257 259 270 265 274 270 268 275 277 272 253 256 256
25 2 346 1 37 93 81 52 40 50 59 58 62 83 87 85 81 55 69 10 41 357 295 254 290 291 300 291 295 283 284 271 272 275 273 277 281 280 272 276 269 267 273 270 265 258 258 253 251
3 5 354 330 335 111 102 48 25 6 69 72 76 73 67 77 83 92 28 312 315 299 314 306 319 327 308 296 295 287 279 278 284 285 287 283 276 279 281 275 271 264 261 257 252 253 248 253 250
339 352 349 322 333 287 92 101 33 17 13 88 84 91 83 105 106 64 4 12 356 352 336 322 311 301 301 300 299 296 291 288 287 285 277 278 278 276 273 273 275 271 265 260 253 249 252 251 248
335 357 270 272 268 281 28 90 338 326 154 89 89 80 76 80 61 24 4 355 348 338 333 299 302 302 298 289 293 297 296 296 295 292 289 288 286 282 281 276 268 266 267 262 260 259 258 258 245
318 323 308 309 151 66 354 110 1 312 39 101 93 83 94 56 37 356 28 356 335 317 315 312 308 306 302 300 297 296 295 293 292 291 290 289 288 284 269 261 259 259 260 256 259 258 255 255 245
15 13 3 28 26 58 106 55 147 6 67 74 129 167 49 54 15 9 356 340 323 324 320 312 313 313 311 306 301 299 297 297 296 296 291 283 279 273 269 269 264 261 257 257 256 245 249 245 242
40 51 118 87 96 78 49 76 23 318 46 99 98 58 45 36 17 4 349 339 337 329 322 324 322 319 320 314 308 303 298 298 292 292 288 286 284 279 273 271 267 264 261 262 257 248 238 238 240
335 21 276 109 100 85 60 49 303 325 286 59 51 38 19 2 350 347 338 342 338 335 334 329 325 322 319 311 304 301 299 294 296 294 293 287 279 277 277 275 274 271 269 259 245 250 244 227 228
71 341 35 16 88 94 131 85 207 310 39 48 46 27 357 352 344 356 347 344 340 334 330 326 327 325 321 316 315 315 319 319 317 312 306 299 297 293 290 290 282 276 276 266 267 235 231 239 224
9 15 23 105 61 140 124 27 222 307 47 39 23 356 346 1 3 355 348 343 337 332 333 335 330 326 324 321 323 327 322 321 322 324 325 327 321 312 302 294 291 290 294 282 269 248 230 229 234
65 51 102 108 72 49 113 288 288 304 69 31 354 331 1 18 5 357 350 344 342 344 341 339 336 331 331 332 333 324 328 333 340 348 339 330 323 313 308 303 295 286 277 273 265 261 230 219 215